Regional Weather Roundup
Issued by NWS Jackson, KY

Home | Current Version | Previous Version | Graphics & Text | Print | Product List | Glossary On
Versions: 1 2 3 4 5 6 7 8 9 10 11 12 13 14 15 16 17 18 19 20 21 22 23 24 25 26 27 28 29 30 31 32 33 34 35 36 37 38 39 40 41 42 43 44 45 46 47 48 49 50
000
ASUS43 KJKL 011110
RWRJKL

EAST KENTUCKY HOURLY WEATHER ROUNDUP
NATIONAL WEATHER SERVICE JACKSON KY
700 AM EDT TUE SEP 01 2015

NOTE: "FAIR" INDICATES FEW OR NO CLOUDS BELOW 12,000 FEET WITH
NO SIGNIFICANT WEATHER AND/OR OBSTRUCTIONS TO VISIBILITY.

* THESE REPORTS ARE NOT UNDER NWS QUALITY CONTROL AND MAY NOT
  REPORT WEATHER SUCH AS PRECIPITATION AND FOG.

KYZ079-080-083-085-087-088-110-112-115-119-120-011200
...EASTERN KENTUCKY...

CITY           SKY/WX    TMP DP  RH WIND       PRES   REMARKS
JACKSON        CLEAR     66  64  93 CALM      30.17R
LONDON         CLEAR     65  60  84 CALM      30.16R
SOMERSET*      PTCLDY    61  61 100 CALM      30.17R FOG
MONTICELLO*    FOG       61  61 100 CALM      30.18S VSB 1/2
WILLIAMSBURG*  CLOUDY    63  63 100 CALM      30.17R
MIDDLESBORO*   CLOUDY    63  63 100 CALM      30.18R
HARLAN APT*      N/A     64  64 100 MISG      30.19R VSB 1/4
HAZARD APT*    SUNNY     64  64 100 CALM      30.17R FOG
BLACK MTN*       N/A    N/A N/A N/A CALM        N/A
PIKEVILLE APT* FOG       64  64 100 CALM      30.17R VSB 1/4
BIG SANDY*     SUNNY     66  66  99 CALM      30.16R FOG
MOREHEAD APT*  FOG       63  63 100 S5        30.17S VSB 1/4
$$

KYZ035-036-041-042-044-050-067-078-099-011200
...CENTRAL KENTUCKY...

CITY           SKY/WX    TMP DP  RH WIND       PRES   REMARKS
MT STERLING*   CLEAR     61  61 100 CALM      30.17R FOG
FLEMING/MASON* CLEAR     64  64 100 CALM      30.16R FOG
DANVILLE*      CLEAR     61  61 100 CALM      30.17R
RICHMOND*      CLEAR     63  61  94 CALM      30.15R
LEXINGTON      CLEAR     65  62  90 SE5       30.16R
FRANKFORT      CLEAR     64  61  90 CALM      30.14R
$$

KYZ091>093-OHZ055-061-077-WVZ005-015-034-035-042-011200
...SOUTHERN OHIO/WEST VIRGINIA...

CITY           SKY/WX    TMP DP  RH WIND       PRES   REMARKS
COVINGTON      CLEAR     66  65  96 CALM      30.14R
COLUMBUS       PTCLDY    68  66  93 CALM      30.12R
DAYTON         PTCLDY    69  67  93 SW3       30.15R
WILMINGTON     CLEAR     65  63  93 CALM      30.15R FOG
HUNTINGTON     FOG       63  63 100 CALM      30.14R VSB 1/2
CHARLESTON     MOCLDY    64  63  96 S3        30.15R FOG
PINEVILLE*     FOG       64  64 100 MISG      30.24R VSB 1/2
BECKLEY        CLEAR     61  59  93 CALM      30.21R FOG
BLUEFIELD      CLEAR     66  59  78 W3        30.23R
$$

VAZ002-007-008-TNZ017-027-036-066-071-011200
...SOUTHWEST VIRGINIA/EAST TENNESSEE...

CITY           SKY/WX    TMP DP  RH WIND       PRES   REMARKS
WISE*          CLEAR     64  64 100 CALM      30.24R
JONESVILLE*    SUNNY     61  59  94 CALM      30.19S
ABINGDON*      CLEAR     64  62  93 CALM      30.20R
BRISTOL        PTCLDY    62  61  96 CALM      30.18R
KNOXVILLE      PTCLDY    66  66 100 CALM      30.13
OAK RIDGE      CLEAR     66  63  90 CALM      30.16R
CROSSVILLE     CLEAR     64  60  87 CALM      30.19R FOG
NASHVILLE      PTCLDY    67  64  90 CALM      30.14R
$$

...KEY TO REMARKS...
VSB - VISIBILITY IN MILES
WCI - WIND CHILL INDEX
HX  - HEAT INDEX

$$



USA.gov is the U.S. government's official web portal to all federal, state and local government web resources and services.